GFSMW_700_spd_057.txt.gz
Wind_Speed
30 29 30 30 29 28 26 27 26 23 21 18 16 14 14 16 11 11 12 6 5 5 3 2 5 8 1 8 1 9 11 10 11 8 4 10 4 6 4 3 1 7 6
31 30 32 31 31 29 27 27 26 24 21 20 18 16 15 12 12 10 9 6 5 5 3 3 3 3 6 3 3 10 6 6 12 14 5 8 14 3 3 1 3 4 3
31 32 32 33 32 31 29 27 27 24 23 23 22 20 19 17 14 11 11 8 6 6 5 4 2 3 3 4 3 4 11 7 6 11 12 9 7 4 8 7 5 5 8
29 31 32 33 32 30 30 28 28 27 25 24 24 22 18 15 13 13 10 9 7 7 7 6 3 1 5 1 2 2 12 8 4 8 13 13 12 9 7 8 4 4 6
22 24 26 29 31 32 30 29 29 29 28 26 25 23 21 18 14 13 18 13 9 8 8 8 6 3 2 0 1 3 2 12 13 2 1 11 10 12 13 7 7 11 7
27 24 19 27 31 32 32 31 30 30 30 29 28 26 25 22 18 17 17 16 12 10 9 8 6 5 4 2 2 1 2 5 13 15 9 3 5 5 7 3 5 6 6
28 27 26 22 23 30 31 33 32 31 31 31 31 29 27 25 22 20 19 15 12 11 11 10 9 9 8 5 3 1 3 3 5 7 12 14 15 13 10 11 3 6 3
28 29 24 23 21 22 27 30 32 32 32 33 32 31 30 28 26 24 22 20 16 15 18 13 11 10 8 7 7 6 4 4 4 6 5 8 6 8 10 11 12 7 2
31 30 28 27 25 24 21 26 29 29 32 31 32 33 33 32 30 28 26 23 21 19 20 14 13 12 11 10 9 8 7 6 6 6 7 8 10 10 9 7 6 4 8
31 29 30 28 24 25 25 24 22 28 29 32 31 32 35 34 33 30 29 26 24 22 21 17 16 14 12 11 10 10 10 8 8 8 9 9 10 10 8 6 5 3 1
25 26 29 28 27 28 29 26 28 21 28 31 31 31 33 36 36 34 32 30 27 25 23 20 19 17 15 14 13 13 13 12 11 9 10 11 10 10 9 8 6 4 4
28 28 27 29 30 29 30 29 25 27 21 26 29 31 32 34 36 36 33 32 31 28 24 23 22 20 18 16 15 16 17 15 15 13 12 12 12 12 11 10 9 9 10
33 30 28 29 31 31 30 30 30 25 24 24 25 28 32 35 37 37 35 34 32 30 27 26 24 22 21 18 16 16 17 18 18 18 18 16 16 14 14 13 13 14 15
36 33 30 28 28 28 25 29 26 30 29 26 26 25 30 32 36 37 36 35 33 32 29 27 26 24 24 21 19 17 18 20 19 21 21 21 21 19 18 18 17 19 21
26 34 34 30 32 32 27 29 34 29 30 29 26 25 23 29 32 36 35 35 35 33 30 29 28 26 26 25 22 20 19 20 19 19 23 24 24 23 23 24 23 25 25
18 25 27 28 30 30 24 22 27 33 32 28 27 26 28 27 29 32 35 35 36 34 32 32 30 29 28 27 24 22 22 22 21 20 22 21 24 24 25 25 26 26 26
17 18 20 25 27 28 34 26 26 31 35 33 30 29 27 28 26 29 33 35 36 35 34 33 32 31 29 29 26 24 25 25 24 23 23 23 22 21 22 25 25 25 25
28 23 27 31 38 37 28 31 30 32 38 36 35 31 27 24 28 27 33 34 35 35 35 33 33 31 30 30 28 26 26 28 27 25 24 24 23 23 22 21 23 22 22
26 26 31 30 34 39 38 32 35 32 37 39 37 34 32 26 25 24 29 32 33 34 35 33 32 33 31 29 28 29 29 31 29 27 25 24 24 23 21 22 22 22 22
23 26 30 33 35 37 37 39 39 36 34 41 38 36 37 33 27 24 21 25 29 30 31 31 32 32 30 29 28 30 31 33 30 27 26 24 23 21 21 23 23 24 24
33 28 30 34 35 39 42 43 41 38 31 32 38 41 38 39 32 29 27 24 24 27 30 31 31 31 30 29 29 30 33 33 29 26 25 24 23 22 23 25 26 28 29
37 32 27 31 36 39 44 45 45 37 37 35 34 44 42 41 39 34 30 29 29 29 29 31 33 32 31 31 32 33 35 33 30 26 26 26 25 24 24 26 28 31 34
36 34 30 29 38 43 43 44 45 46 44 39 33 38 47 44 42 37 34 33 36 38 37 36 36 34 33 33 33 33 34 34 33 30 29 28 27 27 26 28 32 35 37
35 33 30 31 36 41 47 48 52 54 52 45 38 35 46 43 43 38 39 32 33 33 36 38 36 35 34 33 32 32 33 34 33 30 30 30 30 32 33 33 31 32 33
26 28 26 27 31 39 45 51 55 56 57 53 46 40 45 43 40 37 36 33 31 32 35 35 34 33 32 31 29 30 31 32 32 33 33 33 34 33 31 30 30 32 33
29 24 24 25 27 32 35 39 44 48 49 49 46 41 48 46 43 40 35 35 35 34 34 35 34 33 35 30 31 31 31 30 32 33 31 29 29 28 29 31 32 34 35

GFSMW_700_spd_060.txt.gz
Wind_Speed
33 31 31 29 27 25 24 23 23 22 19 18 16 18 16 12 12 10 11 7 6 5 5 4 7 7 1 5 9 15 14 10 9 8 10 16 8 14 16 8 12 8 14
30 33 34 31 32 27 24 25 24 21 20 19 17 16 16 18 14 10 8 7 6 5 5 5 5 4 7 6 6 12 8 13 13 11 6 4 12 12 5 6 2 10 5
35 36 35 34 32 28 25 25 24 21 20 21 20 19 19 16 11 11 12 8 6 5 5 4 4 3 7 8 5 7 5 12 15 13 8 4 5 8 6 7 10 4 5
37 36 34 35 31 27 25 25 25 24 22 22 22 20 18 20 15 9 7 8 6 4 5 5 4 3 5 5 7 6 11 7 12 7 11 8 6 7 3 13 16 7 10
38 37 27 30 30 27 24 26 26 26 26 24 23 21 19 17 12 13 9 9 6 5 4 4 3 2 2 4 6 6 8 10 10 10 7 10 9 10 10 6 11 10 13
37 26 19 26 31 30 25 26 28 27 28 26 25 24 22 20 19 15 17 18 9 8 6 6 5 3 1 3 4 4 5 6 9 10 15 12 10 14 12 3 5 7 9
35 33 26 25 25 30 25 25 26 28 28 28 27 26 24 22 18 17 18 15 13 13 9 7 6 5 4 2 2 3 4 4 5 8 18 15 6 15 9 12 6 7 7
33 34 27 20 17 18 20 22 24 25 28 29 29 27 25 25 22 19 16 20 11 6 7 9 7 6 5 4 3 2 4 4 5 6 7 9 17 15 14 20 10 13 6
37 33 33 25 20 19 16 19 21 24 26 26 29 29 28 28 26 23 20 19 15 14 17 11 9 8 7 7 7 4 3 5 4 5 6 7 9 15 12 10 10 6 10
49 34 38 30 24 22 18 16 17 22 24 27 27 29 28 29 29 26 24 21 18 18 17 12 12 10 9 9 8 7 6 6 5 5 5 7 8 8 10 7 5 5 4
42 40 37 31 25 25 26 23 19 15 24 26 27 28 31 31 31 30 28 25 22 20 22 15 12 12 11 10 10 10 9 8 7 6 6 7 8 8 6 6 5 2 2
24 33 36 40 33 28 27 25 24 23 17 22 27 27 29 32 33 33 31 29 27 24 23 20 16 15 13 12 11 12 12 9 10 10 9 8 9 9 8 7 6 6 7
21 19 18 44 41 28 27 27 27 23 23 23 21 27 28 31 32 34 33 32 30 28 24 23 21 17 16 15 14 13 15 14 13 13 13 12 11 11 11 11 11 11 13
22 25 22 33 36 27 27 25 28 29 25 24 25 19 26 27 29 31 33 32 31 30 27 24 23 21 20 19 17 16 16 17 14 15 15 15 15 14 14 15 15 16 17
24 31 32 29 35 30 31 28 28 27 28 27 25 21 18 25 27 29 31 33 33 32 30 27 26 24 23 22 20 18 18 18 16 15 15 16 17 17 18 19 20 21 21
21 18 21 36 44 31 32 27 23 26 29 26 23 25 25 24 23 28 29 32 34 33 32 31 29 27 26 23 22 20 20 20 19 17 17 16 17 17 18 20 21 23 23
15 25 17 13 29 42 47 27 24 24 31 30 27 25 27 26 26 23 27 30 32 33 33 33 32 30 27 25 24 22 21 22 22 20 20 20 18 17 16 19 21 22 22
13 22 29 28 13 15 31 25 31 27 27 32 33 29 26 25 27 29 26 27 30 33 34 33 32 32 29 27 26 25 24 24 25 24 22 23 21 19 19 18 20 20 20
20 23 28 29 31 31 28 28 30 32 26 30 33 33 31 27 24 28 30 27 28 30 33 33 32 32 30 28 27 28 27 27 27 26 24 23 23 21 21 22 21 20 18
23 23 31 31 27 29 37 35 35 33 34 28 29 33 34 32 28 24 25 28 27 27 30 31 31 31 31 29 27 28 29 29 29 27 26 25 24 22 22 23 22 21 18
22 24 23 22 22 27 28 34 43 43 37 30 30 33 38 34 33 31 27 23 21 25 30 30 30 31 31 29 28 27 29 30 31 30 27 25 23 23 22 23 24 23 23
33 30 27 26 24 25 34 34 35 36 38 38 34 34 36 39 38 35 34 30 27 23 25 29 29 29 28 28 29 28 31 30 33 30 26 25 24 25 25 25 24 25 26
37 32 29 28 32 28 32 39 37 37 37 39 41 35 36 40 43 40 39 36 33 30 26 26 27 27 26 28 29 30 31 32 33 30 29 26 26 27 27 25 25 27 28
47 42 33 33 32 31 31 36 41 40 42 42 44 43 37 37 38 44 42 42 37 34 32 30 30 29 29 29 29 31 31 31 34 33 31 29 29 29 29 27 28 29 31
42 44 45 45 36 35 35 37 39 42 43 45 48 49 42 38 36 43 46 43 41 35 33 32 33 35 35 33 34 32 27 28 30 31 33 31 30 29 29 30 31 33 29
37 42 45 42 38 36 36 41 40 43 46 48 50 51 47 42 39 38 47 47 43 38 35 32 34 33 32 32 31 30 26 23 25 27 28 29 30 30 31 33 33 30 26

GFSMW_700_spd_063.txt.gz
Wind_Speed
37 32 29 30 28 23 20 21 22 23 22 21 18 15 15 17 18 14 9 8 6 7 9 6 10 9 4 12 17 15 11 10 9 12 15 14 16 13 18 15 14 13 15
38 36 38 35 31 24 22 23 22 23 22 19 19 16 17 16 15 12 11 9 7 5 5 7 6 8 8 6 15 14 13 13 8 7 10 9 10 12 12 13 10 14 13
37 40 35 37 31 26 24 25 22 22 22 22 20 23 24 20 16 17 13 11 8 6 6 6 8 7 8 9 17 12 5 14 14 11 1 8 5 13 17 18 15 12 11
32 33 37 36 31 27 23 25 23 23 23 23 21 20 19 21 16 14 14 11 8 6 5 4 7 8 8 8 6 11 11 12 11 10 12 9 10 7 13 16 14 13 10
28 34 33 33 33 25 25 25 24 26 25 24 22 19 17 15 16 15 13 7 9 8 7 6 5 6 7 5 6 12 10 9 12 14 14 11 14 11 9 12 14 14 16
35 29 31 32 35 31 26 27 26 27 27 25 23 22 18 16 17 17 13 12 10 9 9 5 6 6 6 6 5 7 6 7 13 13 15 16 16 16 11 7 10 14 15
36 28 32 39 36 35 26 27 28 27 29 26 25 24 21 20 16 13 13 14 13 10 9 8 7 6 6 6 5 6 7 7 9 13 21 20 19 17 11 8 11 15 15
39 37 27 32 36 31 23 26 27 26 28 28 26 25 24 22 19 16 12 12 11 8 11 11 9 6 5 4 5 6 6 8 10 14 18 14 18 16 16 15 15 14 12
38 42 38 28 30 32 21 23 27 26 25 27 26 26 26 25 22 19 15 11 10 10 12 12 10 8 6 5 5 6 6 6 7 9 11 6 7 9 16 13 12 9 8
44 44 46 39 32 30 22 21 25 29 26 26 27 25 26 26 23 22 19 15 13 11 8 10 9 7 7 6 6 6 7 7 7 7 7 8 9 11 14 14 10 6 5
40 27 45 45 42 38 35 24 20 29 32 30 28 27 27 29 28 25 22 20 17 17 13 9 8 7 6 6 7 7 8 9 8 8 8 9 11 13 12 9 8 7 5
28 17 19 40 37 38 36 36 26 22 30 28 28 29 27 28 30 30 26 23 21 21 18 13 12 11 9 8 8 8 8 9 10 9 10 10 10 10 9 8 7 5 5
25 21 24 21 53 48 38 37 36 28 25 30 30 29 30 30 29 30 28 27 25 24 23 19 15 14 12 11 11 11 10 10 10 11 11 11 12 12 11 9 9 8 9
30 24 28 8 25 38 38 35 35 35 30 27 27 25 28 30 29 28 29 29 28 27 26 24 21 17 15 15 14 14 14 11 11 12 13 14 14 14 14 13 13 14 14
28 24 17 19 18 35 47 32 33 36 32 30 32 27 21 28 31 30 29 29 29 28 27 26 25 24 21 19 18 16 15 15 13 12 14 16 16 17 18 18 18 18 18
22 23 28 30 26 27 38 39 34 34 32 32 29 30 27 23 27 30 29 30 28 29 29 29 28 27 26 23 20 19 18 17 17 16 14 15 16 17 19 20 20 20 20
18 11 24 19 38 44 33 52 47 51 24 29 30 30 28 27 24 25 29 29 30 29 30 31 30 29 27 25 24 23 21 21 19 18 18 17 16 16 17 18 19 19 19
17 15 13 19 21 18 42 36 58 47 35 30 27 29 30 29 28 27 25 26 29 30 29 30 31 31 29 27 26 25 25 24 23 21 20 20 19 18 18 18 19 18 17
24 18 12 12 11 13 12 24 25 39 33 30 28 31 31 30 30 29 27 27 25 25 29 29 30 31 30 29 27 27 28 25 24 23 22 22 21 19 20 21 20 19 17
33 26 19 6 6 8 15 23 22 33 36 27 22 27 30 31 31 29 27 27 28 26 22 27 29 30 30 29 28 28 28 28 26 24 23 23 22 20 20 22 22 20 14
38 32 31 14 11 9 13 24 25 41 33 34 29 30 28 29 31 33 30 28 27 28 28 26 28 30 30 30 29 29 30 29 27 27 25 24 23 22 21 22 22 22 19
38 29 29 24 17 19 20 16 19 38 37 37 36 32 30 29 30 34 33 31 30 26 25 27 29 31 30 30 30 31 31 28 30 30 27 25 24 23 23 23 23 21 20
36 32 26 31 24 16 19 28 29 29 38 41 42 37 36 35 33 33 35 34 36 33 27 24 21 25 29 30 29 29 29 29 31 31 28 27 25 23 24 25 25 23 22
31 29 33 36 31 24 21 24 27 30 34 37 41 41 38 37 34 32 35 37 37 40 36 33 27 21 23 28 29 28 28 29 30 30 29 27 27 25 26 27 26 25 24
37 35 35 50 48 38 32 26 26 30 36 39 37 41 41 39 37 36 34 35 38 41 43 38 34 29 24 23 23 24 24 25 26 26 30 31 30 27 25 27 27 26 25
35 36 37 45 54 52 42 38 30 32 37 41 36 38 42 43 43 42 38 36 37 40 44 43 39 34 30 28 30 32 29 26 26 31 32 30 30 28 26 27 27 27 27

GFSMW_700_spd_069.txt.gz
Wind_Speed
29 26 23 21 19 12 9 8 12 18 17 18 15 12 17 16 13 11 10 8 7 5 4 7 9 9 6 8 14 14 9 10 9 12 12 13 12 13 14 15 14 14 14
32 31 29 22 23 16 9 9 11 16 18 18 16 14 17 16 14 12 10 8 6 5 4 5 6 4 5 6 9 12 12 11 12 12 10 9 11 13 13 13 13 13 14
35 31 28 23 27 21 17 14 9 12 16 18 19 17 21 19 16 11 9 9 7 6 5 4 4 6 7 9 6 12 15 13 11 9 9 12 13 13 12 11 12 14 16
32 36 25 27 29 20 19 16 13 14 17 21 20 17 16 17 15 12 10 9 9 7 6 5 5 5 7 9 10 8 11 13 11 7 10 11 13 13 12 12 14 16 20
24 28 26 19 20 21 18 18 16 17 20 22 21 20 18 17 16 17 15 11 9 9 9 7 4 2 3 5 13 8 8 7 10 12 11 12 13 13 14 17 19 21 20
31 32 19 24 17 22 23 19 18 20 22 24 22 20 19 20 18 20 17 13 10 9 9 8 7 4 2 2 5 9 8 9 11 15 14 14 13 15 17 18 20 22 22
31 35 24 23 26 20 25 18 18 22 23 25 23 20 19 22 22 19 16 16 13 10 9 9 7 6 4 2 2 6 7 7 11 17 15 16 15 16 17 18 19 18 18
22 35 26 18 20 18 19 20 19 22 24 27 24 22 21 21 19 23 19 17 15 11 10 11 10 10 8 6 4 4 7 8 11 17 17 17 18 17 17 18 18 17 16
25 26 24 22 20 21 18 19 18 19 23 26 27 25 23 23 20 20 20 20 18 16 14 12 12 11 10 9 8 6 4 7 9 16 16 17 17 17 18 18 17 16 14
31 30 30 24 23 19 16 19 19 18 19 23 27 26 24 23 22 22 19 17 19 19 18 16 15 14 12 10 9 8 7 7 8 12 16 15 14 17 19 19 18 16 14
29 26 29 29 20 19 21 21 21 22 22 24 26 28 27 26 24 24 22 19 17 18 16 17 17 16 15 14 12 11 11 10 9 10 13 14 14 18 21 20 17 15 14
24 28 34 30 33 29 22 22 22 23 22 20 26 28 29 29 28 25 23 22 20 19 16 16 17 18 16 16 15 14 13 12 10 10 11 12 14 16 19 19 17 15 15
27 31 42 34 34 33 31 27 27 23 20 21 25 29 30 31 31 29 26 25 24 23 21 19 19 18 17 15 15 15 15 14 13 13 12 13 16 18 19 19 18 17 17
26 32 42 40 36 33 34 34 35 29 29 25 24 27 31 31 31 32 31 30 28 27 27 25 23 22 20 18 16 17 17 16 17 17 16 16 17 19 20 21 20 20 19
18 34 40 43 41 36 37 36 39 40 35 33 30 28 26 30 32 32 34 33 33 31 30 29 28 26 24 22 21 20 19 19 19 20 20 20 20 20 22 23 23 24 23
13 29 37 37 40 40 37 34 35 41 38 37 33 31 29 27 31 33 34 36 36 36 35 34 32 31 29 26 25 24 24 23 22 22 22 23 24 24 25 26 25 25 25
4 10 28 38 42 44 37 38 37 36 39 39 35 32 30 28 26 29 32 35 36 37 38 37 37 36 34 31 29 28 28 27 26 25 24 25 24 25 26 27 28 29 29
9 9 8 7 21 39 46 48 42 39 37 39 37 31 28 29 29 29 31 32 34 35 37 39 38 38 38 35 33 32 32 32 30 29 28 28 27 27 26 27 28 28 27
17 15 16 9 10 22 30 38 41 39 36 34 36 35 33 32 30 33 34 30 31 32 32 35 37 37 36 36 36 36 36 36 35 33 31 31 30 29 28 30 29 29 27
21 21 18 24 13 13 18 25 34 39 38 42 41 37 36 32 30 32 34 31 27 26 28 30 33 34 33 34 35 37 39 40 38 36 35 33 32 30 31 32 32 32 28
26 22 23 22 21 18 19 20 23 37 33 37 32 33 36 38 34 31 31 32 32 28 29 30 29 30 29 31 34 36 39 41 40 38 37 34 33 32 32 33 35 33 30
28 30 24 25 25 23 22 25 33 18 26 35 42 39 37 39 37 35 29 29 30 33 33 34 35 34 33 30 29 33 37 39 41 39 36 36 34 34 34 35 35 34 35
26 32 34 27 28 30 30 23 21 21 15 23 32 38 38 36 38 39 35 33 30 33 35 36 36 36 37 35 34 33 32 35 39 39 37 35 34 35 36 37 37 36 38
34 33 36 35 31 37 39 38 33 22 21 19 24 32 39 34 44 48 42 34 32 32 31 35 36 35 34 34 34 35 35 35 37 37 36 35 36 37 38 38 38 38 36
41 38 38 39 37 32 33 41 46 47 40 31 27 35 46 51 44 52 49 37 36 32 31 30 33 33 36 34 34 32 31 34 35 35 35 36 38 38 37 36 35 34 35
42 44 40 39 43 41 37 34 35 39 45 44 30 34 41 36 40 44 42 39 39 38 35 33 32 30 31 35 39 37 34 33 32 35 37 38 38 37 35 35 33 33 34

GFSMW_700_spd_072.txt.gz
Wind_Speed
24 23 21 21 16 13 10 10 10 12 13 10 11 7 12 14 12 9 8 7 6 6 3 4 3 6 10 9 9 7 6 2 3 5 5 5 6 8 11 13 14 13 13
29 25 24 23 20 16 9 10 9 11 12 11 11 8 12 13 12 10 8 7 4 5 3 4 5 5 5 6 11 11 6 3 7 9 7 5 5 7 8 10 11 12 14
31 30 26 26 21 20 15 10 6 8 13 14 14 13 15 16 14 10 7 6 6 4 4 4 3 4 3 7 8 9 9 8 7 7 9 9 8 5 6 7 10 13 16
30 31 29 26 24 19 17 13 9 7 10 15 14 11 13 14 11 11 8 7 6 6 4 4 2 2 3 4 7 10 11 11 6 5 8 9 7 6 6 7 10 15 18
23 26 30 24 19 17 16 14 12 10 10 14 14 13 13 17 16 14 9 7 7 6 5 4 4 2 3 3 7 6 8 11 11 8 8 8 7 5 6 9 12 17 19
25 20 22 26 27 19 17 14 13 11 11 13 13 13 14 14 16 14 10 10 9 8 7 6 6 4 3 2 4 10 7 6 7 12 11 9 8 7 10 11 14 16 18
27 27 24 26 28 27 23 18 16 15 13 14 17 15 14 14 16 14 12 14 11 8 8 8 6 6 4 3 2 5 7 7 8 13 12 12 11 10 13 14 14 13 14
25 29 26 24 22 21 20 20 18 15 14 16 18 17 16 16 17 19 15 14 14 12 12 11 10 8 7 5 3 3 6 6 8 14 15 15 14 13 15 16 16 15 13
30 23 22 26 24 22 23 21 19 17 16 15 19 19 18 17 16 17 17 18 16 16 14 12 13 12 9 7 6 4 4 7 9 12 15 16 16 15 17 18 17 15 13
23 28 26 20 25 23 20 22 19 17 15 16 19 20 18 18 18 18 17 15 18 19 17 14 15 14 11 11 9 7 5 5 7 10 15 16 16 16 17 17 17 16 14
21 23 30 27 19 25 25 21 23 21 20 19 17 20 21 20 20 20 19 18 18 20 20 17 17 17 15 13 11 10 8 6 7 9 12 17 17 17 19 19 18 17 15
17 22 26 31 27 22 27 28 25 24 21 20 20 20 21 22 24 22 21 21 20 19 19 17 18 18 17 16 14 12 10 10 9 9 9 13 16 16 19 21 20 18 17
11 21 27 26 31 26 28 29 28 28 27 25 23 23 23 24 25 25 24 23 23 23 21 19 18 17 17 17 16 15 14 12 12 11 10 11 13 13 17 20 21 20 19
8 13 25 29 28 27 30 32 29 29 31 30 30 30 26 25 25 25 26 27 26 26 26 24 22 20 19 19 19 19 17 15 14 14 13 13 13 13 15 18 20 21 21
7 9 19 25 30 33 32 33 35 31 29 32 32 31 28 27 26 28 26 28 29 29 28 28 27 24 23 23 22 21 21 19 18 17 17 16 17 17 18 20 21 23 23
8 9 14 22 29 34 36 33 32 31 29 32 35 32 33 32 30 29 28 28 29 31 31 32 32 30 28 26 26 26 25 23 22 22 21 21 21 21 21 22 23 25 26
8 10 9 16 19 27 34 36 34 31 27 25 29 33 31 34 35 32 31 30 29 30 32 33 35 34 33 31 29 29 29 29 27 26 25 26 25 25 25 26 27 28 29
7 8 10 10 10 17 24 34 32 29 32 31 26 25 28 32 35 36 33 31 30 31 31 33 35 35 35 34 33 32 33 33 32 30 29 29 29 28 28 29 30 30 30
14 14 12 10 9 11 13 20 33 35 43 37 33 32 32 32 34 36 35 31 32 32 31 31 34 37 35 34 33 34 37 37 36 35 34 33 32 31 30 32 31 31 29
20 18 20 17 18 13 14 15 19 26 30 36 37 35 32 30 31 32 34 33 33 32 32 32 32 34 35 33 32 34 36 39 39 38 38 37 35 32 32 34 34 34 29
32 25 20 21 21 20 19 15 18 17 23 28 32 38 35 32 33 32 34 33 33 33 36 34 32 32 31 31 31 32 35 37 37 37 38 38 36 34 34 35 36 35 31
31 34 31 23 22 23 22 23 22 20 20 20 22 32 36 32 31 29 31 30 28 28 32 33 34 34 31 29 29 29 31 33 35 36 36 36 36 35 35 38 37 36 37
41 36 39 35 26 24 27 27 24 20 18 23 20 19 25 36 35 32 31 33 32 31 30 33 38 36 35 34 32 32 31 31 31 30 32 33 35 36 37 38 38 39 41
48 46 42 43 42 31 29 31 31 27 27 26 29 20 13 21 32 29 31 34 40 35 33 33 37 38 36 36 34 33 34 34 34 32 30 29 31 34 36 38 40 41 41
46 50 52 47 45 42 36 31 32 38 40 38 35 34 21 19 20 28 31 39 39 38 35 33 33 36 34 33 30 30 30 33 33 33 34 33 33 34 35 35 36 38 38
48 49 51 52 49 49 46 40 38 33 37 37 44 40 37 23 36 27 34 42 34 38 45 38 34 35 32 30 31 32 32 32 33 34 34 31 30 31 34 34 33 35 36

GFSMW_700_spd_078.txt.gz
Wind_Speed
25 22 18 18 15 19 20 20 19 17 14 10 9 7 6 6 4 6 6 4 2 4 7 6 6 5 6 5 4 4 3 2 3 7 4 4 7 6 7 8 8 10 14
28 25 22 21 17 16 18 19 18 16 14 12 12 9 7 9 7 6 5 3 2 3 4 6 8 7 7 5 5 4 3 6 6 5 10 5 9 4 5 6 8 10 15
28 29 24 23 21 19 18 17 16 16 15 13 12 9 8 8 7 6 5 3 2 2 3 6 6 6 6 5 8 6 5 3 6 7 13 8 3 8 3 4 7 11 15
26 28 25 24 24 21 19 16 15 16 15 13 12 10 8 10 9 7 6 3 2 2 3 3 5 4 6 6 7 9 8 8 2 6 7 9 8 10 3 1 7 12 14
25 26 25 24 23 23 20 19 16 14 13 11 10 11 11 12 13 10 7 4 3 2 3 3 3 4 6 7 8 11 11 11 6 5 4 4 7 6 10 4 4 10 14
24 27 27 21 25 24 23 21 17 14 12 11 9 10 11 12 13 10 8 4 3 3 4 3 3 2 4 7 9 9 11 13 11 9 8 4 7 4 5 5 6 8 11
21 25 28 31 26 29 24 24 20 16 13 11 10 10 11 12 14 12 10 8 5 5 4 5 4 3 3 4 6 8 9 11 10 10 9 11 8 10 8 8 5 9 9
22 22 25 28 31 29 27 25 21 19 15 12 10 10 12 13 14 13 12 9 9 9 6 6 6 5 5 4 3 5 7 7 8 10 13 12 13 12 13 10 9 5 5
21 21 20 23 27 32 29 28 23 20 18 15 13 10 11 13 14 16 15 13 10 10 8 7 8 7 6 5 3 4 4 6 7 9 13 13 13 14 15 16 16 13 7
27 20 19 19 24 28 27 26 25 21 17 16 14 13 11 12 14 16 16 16 15 14 11 9 9 9 8 7 7 5 5 5 6 9 11 14 14 15 17 17 19 18 16
16 26 21 20 25 26 26 25 24 22 22 21 20 18 15 11 13 15 16 15 15 16 15 13 11 10 10 10 9 8 7 6 6 6 9 12 13 16 18 19 20 20 19
7 6 24 25 18 26 28 26 25 23 22 24 24 22 21 20 16 15 15 17 16 16 16 16 16 14 12 12 12 11 10 9 8 7 7 10 12 14 18 19 22 22 22
22 21 27 27 31 35 31 28 26 25 27 28 27 27 25 24 20 16 15 17 18 18 18 17 16 16 15 16 16 15 13 13 12 10 9 10 10 13 17 19 22 23 24
7 13 17 22 26 29 32 35 33 29 29 30 30 30 29 28 25 21 19 19 20 21 21 21 20 19 17 17 18 19 16 15 15 15 12 13 12 12 14 18 21 23 25
4 3 6 14 19 24 31 34 33 30 29 29 31 31 29 30 28 29 29 25 25 24 24 25 25 24 23 20 19 18 17 17 17 17 17 16 15 15 15 15 17 20 22
4 5 4 4 7 15 19 26 29 32 31 28 29 30 32 32 33 31 30 32 31 29 28 29 29 29 28 26 24 21 21 21 20 19 19 19 19 19 18 18 19 19 20
8 8 8 8 10 8 10 16 22 26 30 30 32 34 35 36 36 35 33 33 34 33 34 33 32 32 32 30 28 26 26 26 25 24 23 22 23 21 23 22 23 23 23
10 10 10 10 11 12 11 11 12 17 22 28 28 32 34 30 32 34 34 33 31 35 35 34 34 34 34 33 32 31 31 32 31 30 28 28 27 26 26 26 27 26 27
17 16 14 13 13 14 14 14 15 14 14 27 30 30 32 32 34 32 38 37 38 36 34 33 34 35 34 33 33 33 36 37 36 34 33 33 31 29 29 30 31 30 28
22 22 21 21 20 19 17 18 18 18 16 17 22 33 35 37 39 36 32 32 38 40 40 39 36 35 33 33 33 34 38 40 39 38 37 37 36 34 32 34 34 35 30
26 26 26 27 27 26 24 23 22 23 23 21 21 22 26 41 45 33 32 30 31 36 41 42 39 34 33 33 33 35 38 38 37 38 39 39 38 38 38 38 39 37 34
31 33 32 32 32 32 32 31 28 28 27 24 25 24 23 22 30 36 39 37 33 33 36 41 41 39 36 34 33 33 34 34 36 35 35 36 37 37 38 40 42 41 41
31 33 34 35 35 38 39 36 36 34 32 30 31 28 27 27 25 26 35 37 36 33 38 43 44 41 39 38 37 37 36 36 38 34 31 31 32 34 35 37 40 42 45
23 28 33 39 40 40 41 44 42 40 41 37 33 30 33 30 29 28 28 27 30 39 40 49 43 44 39 40 40 39 37 36 37 34 33 31 30 29 31 33 35 39 41
23 25 29 34 39 43 47 47 47 47 46 45 43 40 34 37 33 30 28 26 26 30 34 33 42 48 41 39 40 40 38 34 34 33 34 34 35 34 34 35 36 36 36
22 24 26 30 33 38 44 48 52 52 52 50 50 48 46 41 41 40 37 32 29 29 28 37 49 47 38 43 43 39 36 35 34 34 36 34 34 36 37 36 34 35 36

GFSMW_700_spd_084.txt.gz
Wind_Speed
24 22 21 21 20 18 18 19 17 16 13 13 14 12 8 8 5 7 6 4 1 6 5 4 5 3 8 4 6 7 10 8 10 13 8 16 15 17 9 10 3 5 11
25 22 22 21 18 18 17 18 16 17 15 13 14 15 6 9 5 6 5 1 4 3 5 5 4 2 1 8 5 13 11 9 11 10 10 8 14 10 5 2 8 8 9
28 26 24 22 19 19 18 18 18 18 17 15 10 17 18 8 13 3 6 3 3 2 6 6 3 3 6 7 10 7 11 11 11 13 14 13 11 5 12 5 8 6 8
31 25 28 24 22 18 17 20 21 21 19 15 14 12 19 12 5 9 8 6 4 3 5 5 3 2 2 11 10 12 10 12 16 13 10 11 12 9 6 10 2 6 6
32 37 28 21 26 17 16 22 23 24 21 18 15 14 16 14 16 9 8 4 3 4 2 5 5 3 3 1 6 13 13 14 12 17 17 12 17 14 12 7 6 4 4
32 33 27 21 29 24 16 21 23 24 22 20 18 15 17 16 7 13 10 6 5 6 4 4 3 3 6 3 4 9 14 14 10 13 18 21 19 16 11 10 5 5 4
49 33 24 27 29 28 18 21 23 24 23 21 19 18 16 15 16 11 8 6 3 7 6 2 1 1 4 4 6 5 6 10 8 7 16 14 18 18 12 11 10 5 4
33 38 32 30 33 30 22 21 23 24 23 21 18 17 17 16 15 14 12 14 7 8 7 1 1 3 1 3 4 4 4 5 6 8 11 17 14 22 18 18 17 15 5
19 30 31 26 34 33 27 20 24 23 21 19 19 18 17 16 14 15 17 12 12 9 6 7 4 5 4 3 1 1 1 1 2 4 9 13 11 14 24 20 21 15 13
36 31 41 38 27 33 28 23 21 23 20 19 18 17 15 15 14 14 12 12 11 13 5 11 7 7 6 4 3 2 4 1 1 3 7 10 13 11 11 19 23 23 20
34 27 35 27 35 38 36 30 18 24 22 22 20 18 16 15 14 13 12 11 11 13 13 9 6 6 6 6 6 4 2 2 2 4 3 7 13 15 15 15 15 26 26
19 19 25 36 34 39 36 42 32 22 24 23 23 22 20 18 16 14 13 12 12 13 14 12 11 9 10 9 6 7 6 6 6 4 4 4 7 11 14 14 15 15 24
15 19 17 18 32 33 36 37 44 34 26 25 24 21 22 19 16 16 16 14 14 14 14 14 12 12 13 13 10 9 10 10 9 7 7 6 5 6 10 13 15 15 16
12 17 17 19 23 26 30 31 33 30 32 30 29 24 24 21 17 20 18 17 18 16 16 16 16 14 14 13 13 13 12 13 13 12 11 9 7 7 8 8 10 12 15
16 17 17 15 23 21 33 35 34 32 34 30 20 23 24 24 22 22 22 21 23 21 20 19 18 17 16 15 14 15 14 14 16 15 14 13 11 10 11 10 9 9 10
16 16 15 15 14 12 7 28 25 25 29 30 25 23 22 22 25 27 26 24 23 23 22 23 21 21 21 17 17 16 17 17 15 15 17 16 15 13 15 14 13 13 13
10 9 7 7 6 6 10 11 13 22 30 24 23 28 29 26 24 29 30 28 27 26 26 24 24 24 23 22 21 20 20 20 21 20 18 19 19 18 18 18 17 17 17
13 12 10 8 7 6 8 7 11 17 24 31 31 33 33 33 32 31 31 32 30 29 29 29 26 27 27 24 24 24 25 25 25 25 25 24 22 22 23 21 20 20 20
16 15 13 12 10 8 8 8 9 9 13 17 25 32 37 40 38 35 34 35 34 34 32 30 28 28 26 27 28 28 29 30 28 28 28 29 29 25 24 28 30 26 24
16 15 15 16 14 14 13 13 13 13 13 13 13 14 14 18 28 35 39 38 38 37 35 34 34 32 33 32 32 32 33 34 33 32 32 31 31 30 31 33 32 33 31
20 21 22 23 21 20 20 21 22 22 20 20 20 19 19 19 18 18 23 31 35 38 36 35 33 31 31 36 36 36 37 37 36 35 34 33 33 32 33 34 37 36 35
23 23 24 25 25 26 25 25 27 27 28 29 28 28 26 25 25 23 21 20 23 33 38 38 37 37 36 34 35 35 36 39 40 39 37 36 36 36 35 35 35 36 36
28 25 24 24 26 24 24 25 26 27 29 31 33 33 33 33 32 30 30 27 26 26 26 36 41 41 39 40 37 36 35 35 37 40 40 40 38 40 39 38 35 34 34
26 24 24 25 25 24 24 24 26 27 27 28 28 29 33 36 37 37 36 35 33 33 32 31 31 36 42 46 46 44 42 39 38 38 38 42 44 41 42 43 40 39 38
22 20 19 21 21 21 22 23 23 23 24 26 28 29 31 32 34 38 41 42 41 40 40 38 37 37 36 37 42 43 43 44 45 41 40 44 44 43 44 44 45 44 40
19 21 21 22 23 23 23 23 24 22 20 18 18 20 21 23 28 34 38 40 44 47 48 45 44 43 42 41 39 41 46 52 54 52 49 45 45 46 45 45 48 43 43

GFSMW_700_spd_087.txt.gz
Wind_Speed
25 24 22 21 20 19 15 16 17 18 16 15 13 14 11 11 11 12 10 7 6 5 5 5 9 6 5 10 11 8 9 12 12 21 21 19 16 17 9 13 14 16 15
26 25 25 24 18 16 18 16 15 15 15 16 15 16 11 10 9 10 9 8 6 7 6 6 5 5 4 9 12 8 12 14 16 15 17 18 14 12 13 7 9 13 14
29 27 22 22 20 15 18 15 15 17 16 16 17 13 8 11 12 6 8 8 6 7 5 6 7 6 5 6 10 9 11 15 13 11 10 9 12 13 16 8 5 8 9
30 27 23 24 22 13 14 16 18 20 19 16 13 15 12 15 11 9 8 8 7 9 7 5 3 7 7 6 11 9 14 14 17 17 16 10 8 9 13 11 6 5 7
32 28 23 23 22 12 11 17 20 22 21 17 15 15 15 15 13 12 8 8 7 8 6 4 5 6 6 6 11 9 11 16 15 16 18 17 13 9 8 11 7 2 5
35 32 25 26 22 15 11 9 20 22 21 20 16 17 17 14 12 12 8 7 8 9 8 4 7 4 5 5 9 14 10 15 13 15 18 19 16 13 8 5 5 5 3
41 33 33 28 27 25 15 12 16 25 23 22 18 18 16 15 14 12 11 11 8 8 10 8 9 7 4 5 6 9 13 9 8 16 20 21 18 15 14 9 7 4 4
34 42 36 29 27 30 18 16 14 25 24 22 20 20 19 18 12 13 13 14 9 10 7 7 7 7 6 5 6 8 9 10 10 14 21 25 21 20 18 15 13 10 9
31 46 33 31 35 35 22 19 12 20 24 22 22 20 20 20 17 14 14 10 9 5 8 3 3 6 7 6 6 5 7 8 9 10 18 23 24 21 24 20 20 18 14
26 40 32 34 35 35 35 21 17 17 23 23 22 20 18 17 17 16 13 11 9 13 7 7 3 4 4 5 4 4 4 6 7 8 9 14 17 19 26 24 22 22 20
24 35 38 38 43 36 33 33 24 16 24 22 20 19 17 16 15 14 14 14 11 7 6 4 9 5 3 6 6 3 3 5 5 4 4 10 14 12 16 26 27 25 25
21 27 35 39 42 40 36 38 34 26 27 22 21 19 17 16 15 13 13 12 11 10 8 9 9 6 8 8 5 4 5 4 4 2 2 4 6 11 14 11 14 23 28
23 22 20 24 23 29 33 32 31 35 26 28 25 22 18 17 15 12 11 11 11 11 9 8 8 8 11 8 7 7 6 6 7 7 6 5 5 7 9 10 11 11 12
23 23 22 19 22 21 25 22 30 27 26 27 25 23 22 21 18 15 15 14 13 12 12 11 11 10 9 9 9 9 10 9 9 9 9 7 7 8 9 8 8 11 13
18 17 19 18 20 19 22 17 28 27 32 27 27 24 23 21 22 22 20 19 18 16 15 15 13 12 12 12 11 11 10 10 10 10 10 10 9 11 11 10 9 10 11
18 17 16 14 15 19 17 19 26 25 26 30 27 30 15 25 23 25 24 21 21 19 19 18 16 15 13 12 14 14 14 13 12 11 10 10 11 11 10 11 13 14 14
15 15 15 16 15 17 17 18 14 28 26 26 27 16 18 18 17 21 22 23 21 23 21 20 20 19 17 16 15 16 16 16 16 15 15 15 14 15 14 13 14 15 16
17 16 14 13 13 11 10 14 8 10 18 6 11 17 20 18 23 24 21 22 24 25 25 26 26 25 21 21 21 20 21 21 20 20 20 20 19 18 19 19 18 18 18
16 15 13 13 12 12 13 10 9 10 9 16 23 24 26 27 27 29 27 28 27 29 29 29 29 27 26 25 25 24 24 25 25 26 25 24 25 22 21 23 25 25 23
13 13 13 13 13 12 11 11 11 12 14 15 13 19 22 20 16 19 27 33 33 33 31 29 29 30 29 29 29 29 29 28 28 27 26 26 26 27 26 28 28 29 26
15 16 16 17 18 17 17 17 16 15 15 14 15 16 18 16 15 15 14 13 16 20 27 31 33 33 35 32 30 28 27 31 33 33 32 30 30 30 32 32 32 32 32
19 19 19 19 18 19 21 21 22 23 23 23 24 24 23 23 23 22 21 19 18 18 17 19 26 33 36 35 33 33 33 32 32 34 33 34 33 31 33 33 33 35 37
22 21 23 23 21 21 22 23 25 25 26 28 29 29 28 30 30 30 30 28 26 25 24 23 21 22 30 38 39 39 38 34 33 32 31 31 31 29 31 34 34 37 37
27 25 25 24 22 21 22 23 22 21 22 23 25 26 27 27 28 30 32 34 33 33 31 30 30 29 27 27 31 36 41 42 43 43 41 37 34 31 28 28 32 36 40
19 21 21 22 19 20 20 20 20 20 21 22 23 25 26 28 29 30 30 30 30 32 35 36 37 36 34 34 35 35 34 36 40 45 43 41 40 40 39 33 35 38 38
19 18 18 18 19 19 18 20 20 20 21 22 21 20 20 21 22 23 22 24 26 28 31 34 36 38 42 43 43 41 41 41 41 39 39 41 44 42 42 44 44 46 44